When you browse on this site, cookies collect data to enhance your experience and personalize the content and advertising you see.
Visit our Privacy Policy to learn more. By continuing to use the site, you agree to this use of cookies and data.
EN

Hourly Weather Abergele

Today, 9 July, Thursday

Time Temperature Precipitation Wind Pressure Humidity
00:00 +15°C° 0 mm 2 mps 750 mmHg 98%
01:00 +15°C° 1.4 mm 2 mps 750 mmHg 98%
02:00 +15°C° 1.4 mm 2 mps 749 mmHg 98%
03:00 +15°C° 1.4 mm 1 mps 749 mmHg 98%
04:00 +15°C° 0.2 mm 2 mps 749 mmHg 98%
05:00 +14°C° 0.2 mm 3 mps 749 mmHg 98%
06:00 +14°C° 0.2 mm 4 mps 750 mmHg 98%
07:00 +14°C° 0 mm 4 mps 750 mmHg 97%
08:00 +13°C° 0 mm 4 mps 751 mmHg 96%
09:00 +13°C° 0 mm 5 mps 751 mmHg 95%
10:00 +13°C° 0.1 mm 4 mps 751 mmHg 94%
11:00 +13°C° 0.1 mm 4 mps 752 mmHg 94%
12:00 +13°C° 0.1 mm 4 mps 752 mmHg 94%
13:00 +13°C° 0 mm 4 mps 752 mmHg 93%
14:00 +13°C° 0 mm 3 mps 752 mmHg 92%
15:00 +13°C° 0 mm 3 mps 752 mmHg 91%
16:00 +14°C° 0 mm 2 mps 752 mmHg 88%
17:00 +14°C° 0 mm 2 mps 752 mmHg 85%
18:00 +15°C° 0 mm 1 mps 752 mmHg 82%
19:00 +14°C° 0 mm 2 mps 753 mmHg 86%
20:00 +13°C° 0 mm 2 mps 753 mmHg 90%
21:00 +11°C° 0 mm 3 mps 754 mmHg 95%
22:00 +10°C° 0 mm 3 mps 754 mmHg 93%
23:00 +10°C° 0 mm 4 mps 754 mmHg 92%

Tomorrow, 10 July, Friday

Time Temperature Precipitation Wind Pressure Humidity
00:00 +9°C° 0 mm 5 mps 754 mmHg 91%
01:00 +9°C° 0 mm 5 mps 754 mmHg 90%
02:00 +8°C° 0 mm 5 mps 754 mmHg 90%
03:00 +8°C° 0 mm 5 mps 754 mmHg 89%
04:00 +9°C° 0 mm 6 mps 755 mmHg 88%
05:00 +9°C° 0 mm 6 mps 755 mmHg 87%
06:00 +9°C° 0 mm 7 mps 755 mmHg 86%
07:00 +10°C° 0.1 mm 7 mps 755 mmHg 82%
08:00 +11°C° 0.1 mm 7 mps 755 mmHg 78%
09:00 +12°C° 0.1 mm 7 mps 756 mmHg 73%
10:00 +14°C° 0.1 mm 7 mps 756 mmHg 71%
11:00 +14°C° 0.1 mm 7 mps 756 mmHg 68%
12:00 +15°C° 0.1 mm 7 mps 756 mmHg 66%
13:00 +15°C° 0 mm 7 mps 756 mmHg 65%
14:00 +15°C° 0 mm 6 mps 757 mmHg 64%
15:00 +15°C° 0 mm 6 mps 757 mmHg 62%
16:00 +15°C° 0 mm 6 mps 757 mmHg 65%
17:00 +15°C° 0 mm 6 mps 757 mmHg 68%
18:00 +15°C° 0 mm 6 mps 757 mmHg 71%
19:00 +13°C° 0 mm 5 mps 758 mmHg 77%
20:00 +12°C° 0 mm 5 mps 759 mmHg 82%
21:00 +11°C° 0 mm 4 mps 759 mmHg 87%
22:00 +11°C° 0 mm 4 mps 760 mmHg 85%
23:00 +10°C° 0 mm 5 mps 760 mmHg 83%

Day after tomorrow, 11 July, Saturday

Time Temperature Precipitation Wind Pressure Humidity
00:00 +10°C° 0 mm 5 mps 760 mmHg 82%
01:00 +10°C° 0 mm 5 mps 760 mmHg 84%
02:00 +9°C° 0 mm 5 mps 761 mmHg 87%
03:00 +9°C° 0 mm 5 mps 761 mmHg 89%
04:00 +10°C° 0 mm 4 mps 761 mmHg 89%
05:00 +10°C° 0 mm 4 mps 761 mmHg 89%
06:00 +11°C° 0 mm 4 mps 761 mmHg 88%
07:00 +12°C° 0 mm 4 mps 762 mmHg 83%
08:00 +13°C° 0 mm 4 mps 762 mmHg 77%
09:00 +14°C° 0 mm 5 mps 763 mmHg 71%
10:00 +14°C° 0 mm 4 mps 763 mmHg 68%
11:00 +15°C° 0 mm 4 mps 763 mmHg 65%
12:00 +15°C° 0 mm 4 mps 763 mmHg 62%
13:00 +17°C° 0 mm 4 mps 763 mmHg 63%
14:00 +17°C° 0 mm 4 mps 763 mmHg 64%
15:00 +17°C° 0 mm 4 mps 763 mmHg 65%
16:00 +17°C° 0 mm 4 mps 763 mmHg 66%
17:00 +16°C° 0 mm 3 mps 763 mmHg 67%
18:00 +16°C° 0 mm 3 mps 763 mmHg 68%
19:00 +13°C° 0 mm 3 mps 763 mmHg 75%
20:00 +13°C° 0 mm 2 mps 763 mmHg 82%
21:00 +10°C° 0 mm 2 mps 764 mmHg 89%
22:00 +9°C° 0 mm 2 mps 764 mmHg 89%
23:00 +9°C° 0 mm 2 mps 764 mmHg 89%

12 July, Sunday

Time Temperature Precipitation Wind Pressure Humidity
00:00 +9°C° 0 mm 2 mps 764 mmHg 89%
01:00 +9°C° 0 mm 2 mps 763 mmHg 89%
02:00 +9°C° 0 mm 2 mps 763 mmHg 88%
03:00 +9°C° 0 mm 2 mps 763 mmHg 88%
04:00 +10°C° 0 mm 2 mps 763 mmHg 85%
05:00 +10°C° 0 mm 2 mps 763 mmHg 83%
06:00 +12°C° 0 mm 2 mps 763 mmHg 81%
07:00 +14°C° 0 mm 2 mps 763 mmHg 75%
08:00 +18°C° 0 mm 1 mps 763 mmHg 69%
09:00 +20°C° 0 mm 1 mps 764 mmHg 63%
10:00 +21°C° 0 mm 1 mps 763 mmHg 60%
11:00 +21°C° 0 mm 1 mps 763 mmHg 57%
12:00 +22°C° 0 mm 1 mps 763 mmHg 54%
13:00 +21°C° 0 mm 2 mps 763 mmHg 55%
14:00 +21°C° 0 mm 2 mps 763 mmHg 55%
15:00 +20°C° 0 mm 2 mps 763 mmHg 55%
16:00 +19°C° 0 mm 3 mps 763 mmHg 59%
17:00 +19°C° 0 mm 3 mps 763 mmHg 63%
18:00 +18°C° 0 mm 3 mps 762 mmHg 66%
19:00 +16°C° 0 mm 3 mps 763 mmHg 71%
20:00 +14°C° 0 mm 2 mps 763 mmHg 75%
21:00 +13°C° 0 mm 2 mps 763 mmHg 80%
22:00 +13°C° 0 mm 2 mps 762 mmHg 77%
23:00 +13°C° 0 mm 2 mps 762 mmHg 74%

13 July, Monday

Time Temperature Precipitation Wind Pressure Humidity
00:00 +12°C° 0 mm 2 mps 762 mmHg 72%
01:00 +12°C° 0 mm 2 mps 762 mmHg 72%
02:00 +12°C° 0 mm 2 mps 762 mmHg 73%
03:00 +11°C° 0 mm 3 mps 761 mmHg 73%
04:00 +11°C° 0 mm 3 mps 761 mmHg 75%
05:00 +12°C° 0 mm 3 mps 761 mmHg 76%
06:00 +12°C° 0 mm 3 mps 761 mmHg 77%
07:00 +13°C° 0 mm 3 mps 761 mmHg 75%
08:00 +14°C° 0 mm 3 mps 760 mmHg 73%
09:00 +16°C° 0 mm 3 mps 760 mmHg 70%
10:00 +17°C° 0 mm 3 mps 760 mmHg 70%
11:00 +17°C° 0 mm 3 mps 760 mmHg 69%
12:00 +17°C° 0 mm 3 mps 760 mmHg 68%
13:00 +17°C° 0 mm 2 mps 759 mmHg 68%
14:00 +17°C° 0 mm 2 mps 759 mmHg 69%
15:00 +16°C° 0 mm 2 mps 759 mmHg 69%
16:00 +16°C° 0 mm 2 mps 759 mmHg 72%
17:00 +15°C° 0 mm 2 mps 758 mmHg 76%
18:00 +15°C° 0 mm 2 mps 758 mmHg 79%
19:00 +14°C° 0.1 mm 2 mps 758 mmHg 82%
20:00 +14°C° 0.1 mm 2 mps 758 mmHg 86%
21:00 +13°C° 0.1 mm 2 mps 758 mmHg 89%
22:00 +13°C° 0.3 mm 2 mps 758 mmHg 91%
23:00 +13°C° 0.3 mm 2 mps 758 mmHg 93%

14 July, Tuesday

Time Temperature Precipitation Wind Pressure Humidity
00:00 +13°C° 0.3 mm 2 mps 758 mmHg 95%
01:00 +13°C° 0.3 mm 2 mps 758 mmHg 96%
02:00 +13°C° 0.3 mm 2 mps 757 mmHg 96%
03:00 +13°C° 0.3 mm 2 mps 757 mmHg 97%
04:00 +12°C° 0.2 mm 3 mps 757 mmHg 97%
05:00 +12°C° 0.2 mm 3 mps 758 mmHg 96%
06:00 +12°C° 0.2 mm 3 mps 758 mmHg 96%
07:00 +13°C° 0 mm 3 mps 758 mmHg 90%
08:00 +13°C° 0 mm 4 mps 758 mmHg 84%
09:00 +14°C° 0 mm 4 mps 758 mmHg 78%
10:00 +15°C° 0 mm 4 mps 758 mmHg 75%
11:00 +15°C° 0 mm 4 mps 758 mmHg 72%
12:00 +15°C° 0 mm 4 mps 757 mmHg 69%
13:00 +15°C° 0 mm 4 mps 757 mmHg 68%
14:00 +15°C° 0 mm 4 mps 757 mmHg 67%
15:00 +15°C° 0 mm 4 mps 757 mmHg 66%
16:00 +15°C° 0 mm 4 mps 757 mmHg 67%
17:00 +15°C° 0 mm 4 mps 757 mmHg 68%
18:00 +14°C° 0 mm 4 mps 757 mmHg 69%
19:00 +13°C° 0 mm 4 mps 757 mmHg 76%
20:00 +12°C° 0 mm 3 mps 757 mmHg 82%
21:00 +10°C° 0 mm 3 mps 757 mmHg 88%
22:00 +10°C° 0 mm 3 mps 757 mmHg 89%
23:00 +10°C° 0 mm 4 mps 757 mmHg 89%
Show more